This demonstration page uses our WeatherBlox Daily Observations layout. Learn more.

39.51506, -84.39828

Hourly Observations for November 19, 2018

Temp ( °F °C ) Dew Point ( °F °C ) Humidity (%) Winds ( mph kmh ) Pressure ( in mb ) Visibility ( mi km ) Precip ( " mm )
12:15 am 00:15 Cloudy with Light Drizzle 40 4.6 37 2.8 88 88 NNE 3 6 30.18 1022 4 6.43736 0 0
12:35 am 00:35 Cloudy with Light Drizzle 40 4.5 37 3 90 90 N 3 6 30.18 1022 3.5 5.63269 0 0
12:55 am 00:55 Cloudy with Light Drizzle 40 4.5 37 3 90 90 Calm 30.18 1022 3.5 5.63269 0 0
1:15 am 01:15 Cloudy with Mist and Fog 40 4.4 37 3 91 91 Calm 30.18 1022 3.5 5.63269 0 0
1:35 am 01:35 Cloudy with Light Rain 40 4.4 37 3 91 91 N 5 7 30.18 1022 3.5 5.63269 0 0
1:55 am 01:55 Cloudy with Light Rain 40 4.3 38 3.1 92 92 NNE 3 6 30.15 1021 3 4.82802 0 0
2:15 am 02:15 Cloudy with Light Rain 40 4.2 38 3.2 93 93 Calm 30.15 1021 3 4.82802 0 0
2:35 am 02:35 Cloudy with Light Rain 39 4.1 38 3.3 95 95 NNE 5 7 30.15 1021 2.5 4.02335 0.01 0.254
2:55 am 02:55 Cloudy with Light Rain 39 4 38 3.3 95 95 NNW 3 6 30.18 1022 2 3.21868 0.02 0.508
3:15 am 03:15 Cloudy with Rain 39 3.9 38 3.3 96 96 NW 5 7 30.18 1022 2.5 4.02335 0.01 0.254
3:35 am 03:35 Cloudy with Light Rain 39 3.8 38 3.2 96 96 N 3 6 30.18 1022 2.5 4.02335 0.03 0.762
3:55 am 03:55 Cloudy with Rain 39 3.7 38 3.1 96 96 NNE 6 9 30.15 1021 2.5 4.02335 0.06 1.524
4:15 am 04:15 Cloudy with Light Rain 39 3.7 38 3.2 97 97 N 5 7 30.15 1021 2.5 4.02335 0.01 0.254
4:35 am 04:35 Cloudy with Light Rain 39 3.8 38 3.3 97 97 NNE 5 7 30.15 1021 2.5 4.02335 0.01 0.254
4:55 am 04:55 Cloudy with Light Rain 39 3.8 38 3.3 97 97 NNE 5 7 30.15 1021 2.5 4.02335 0.02 0.508
5:15 am 05:15 Cloudy with Light Rain 39 3.8 38 3.3 97 97 NNE 5 7 30.15 1021 2.5 4.02335 0 0
5:35 am 05:35 Cloudy with Light Rain 39 3.9 38 3.4 97 97 N 5 7 30.15 1021 2 3.21868 0 0
5:55 am 05:55 Cloudy with Rain 39 3.8 38 3.3 97 97 Calm 30.15 1021 2.5 4.02335 0.04 1.016
6:15 am 06:15 Cloudy with Rain 39 3.8 38 3.3 97 97 NE 5 7 30.12 1020 2.5 4.02335 0.04 1.016
6:35 am 06:35 Cloudy with Rain 39 3.8 38 3.4 97 97 NE 7 11 30.12 1020 2.5 4.02335 0.06 1.524
6:55 am 06:55 Cloudy with Rain 39 3.8 38 3.3 97 97 NNE 5 7 30.12 1020 2.5 4.02335 0.07 1.778
7:15 am 07:15 Cloudy with Light Rain 39 3.8 38 3.3 97 97 NNE 7 11 30.12 1020 3 4.82802 0.01 0.254
7:35 am 07:35 Cloudy with Light Rain 39 3.8 38 3.1 95 95 NNE 6 9 30.12 1020 2.5 4.02335 0.02 0.508
7:55 am 07:55 Cloudy with Light Rain 39 3.8 38 3.2 96 96 NNE 7 11 30.12 1020 2.5 4.02335 0.03 0.762
8:15 am 08:15 Cloudy with Light Rain 39 3.8 38 3.2 96 96 NNE 6 9 30.12 1020 2 3.21868 0.01 0.254
8:35 am 08:35 Cloudy with Light Rain 39 3.9 38 3.3 96 96 NNE 3 6 30.12 1020 3 4.82802 0.03 0.762
8:55 am 08:55 Cloudy with Light Rain 39 3.9 38 3.2 95 95 ENE 5 7 30.09 1019 2.5 4.02335 0.03 0.762
9:15 am 09:15 Cloudy with Light Rain 39 3.9 38 3.3 96 96 NE 5 7 30.09 1019 1.75 2.816345 0.02 0.508
9:35 am 09:35 Cloudy with Light Rain 39 3.9 38 3.3 96 96 NE 5 7 30.09 1019 2 3.21868 0.03 0.762
9:55 am 09:55 Cloudy with Light Rain 39 4 38 3.4 96 96 NNE 3 6 30.09 1019 2.5 4.02335 0.03 0.762
10:15 am 10:15 Cloudy with Light Rain 39 4.1 38 3.5 96 96 Calm 30.06 1018 2 3.21868 0.01 0.254
10:35 am 10:35 Cloudy with Light Rain 40 4.3 39 3.7 96 96 Calm 30.06 1018 1.75 2.816345 0.01 0.254
10:55 am 10:55 Cloudy with Light Rain 40 4.4 39 3.8 96 96 NE 3 6 30.03 1017 3 4.82802 0.02 0.508
11:15 am 11:15 Cloudy with Mist and Fog 40 4.6 39 3.9 95 95 Calm 30.06 1018 7 11.26538 0 0
11:35 am 11:35 Cloudy with Light Rain 40 4.6 39 4 96 96 N 3 6 30.03 1017 3 4.82802 0 0
11:55 am 11:55 Cloudy with Light Rain 40 4.6 39 4 96 96 Calm 30.03 1017 4 6.43736 0.01 0.254
12:15 pm 12:15 Cloudy with Light Drizzle 40 4.7 39 4.1 96 96 N 3 6 30.03 1017 5 8.0467 0 0
12:35 pm 12:35 Cloudy with Light Rain 41 4.9 40 4.2 95 95 NNW 5 7 30.03 1017 3.5 5.63269 0 0
12:55 pm 12:55 Cloudy with Light Rain 41 4.8 39 4.1 95 95 NNW 3 6 30.03 1017 7 11.26538 0 0
1:15 pm 13:15 Cloudy with Light Rain 41 4.9 40 4.2 95 95 NNW 5 7 30 1016 3.5 5.63269 0 0
1:35 pm 13:35 Cloudy with Mist and Fog 41 4.8 39 3.9 94 94 NNW 3 6 30 1016 5 8.0467 0 0
1:55 pm 13:55 Cloudy with Mist and Fog 41 4.8 39 4.1 95 95 Calm 30 1016 2.5 4.02335 0 0
2:15 pm 14:15 Cloudy with Mist and Fog 41 4.8 40 4.3 97 97 Calm 30 1016 1.5 2.41401 0 0
2:35 pm 14:35 Cloudy with Mist and Fog 41 4.9 40 4.4 97 97 NNW 3 6 30 1016 2 3.21868 0 0
2:55 pm 14:55 Cloudy with Mist and Fog 41 4.9 40 4.3 96 96 NNW 3 6 30 1016 4 6.43736 0 0
3:15 pm 15:15 Cloudy with Mist and Fog 41 4.9 40 4.2 95 95 Calm 30 1016 5 8.0467 0 0
3:35 pm 15:35 Cloudy with Mist and Fog 41 4.9 40 4.2 95 95 NW 3 6 30 1016 5 8.0467 0 0
3:55 pm 15:55 Cloudy with Mist and Fog 41 4.9 40 4.3 96 96 NW 3 6 30 1016 4 6.43736 0 0
4:15 pm 16:15 Cloudy with Mist and Fog 41 4.9 39 4 94 94 WNW 6 9 30 1016 5 8.0467 0 0
4:35 pm 16:35 Cloudy with Mist and Fog 41 5 39 4 93 93 Calm 30 1016 7 11.26538 0 0
4:55 pm 16:55 Cloudy with Mist and Fog 41 4.9 39 4 94 94 Calm 30.03 1017 7 11.26538 0 0
5:15 pm 17:15 Cloudy with Mist and Fog 41 4.9 39 3.9 93 93 Calm 30.03 1017 7 11.26538 0 0
5:35 pm 17:35 Cloudy with Mist and Fog 41 4.8 39 3.9 94 94 Calm 30.03 1017 7 11.26538 0 0
5:55 pm 17:55 Cloudy 41 4.8 39 3.9 94 94 Calm 30.03 1017 7 11.26538 0 0
6:15 pm 18:15 Cloudy 41 4.8 39 3.8 93 93 Calm 30.03 1017 7 11.26538 0 0
6:35 pm 18:35 Cloudy 41 4.8 39 3.8 93 93 Calm 30.03 1017 7 11.26538 0 0
6:55 pm 18:55 Cloudy 41 4.8 38 3.5 91 91 NW 7 11 30.06 1018 10 16.0934 0 0
7:15 pm 19:15 Cloudy 40 4.6 38 3.2 91 91 NW 5 7 30.06 1018 7 11.26538 0 0
7:35 pm 19:35 Cloudy 40 4.5 38 3.4 93 93 Calm 30.06 1018 10 16.0934 0 0
7:55 pm 19:55 Cloudy 40 4.4 38 3.5 94 94 Calm 30.06 1018 10 16.0934 0 0
8:15 pm 20:15 Cloudy 40 4.3 38 3.3 93 93 NNW 3 6 30.06 1018 10 16.0934 0 0
8:35 pm 20:35 Cloudy 40 4.3 37 3 91 91 NNW 3 6 30.06 1018 10 16.0934 0 0
8:55 pm 20:55 Cloudy 40 4.2 37 2.9 91 91 WNW 3 6 30.06 1018 10 16.0934 0 0
9:15 pm 21:15 Cloudy 39 4.1 37 2.7 91 91 W 3 6 30.06 1018 10 16.0934 0 0
9:35 pm 21:35 Cloudy 39 4 36 2.3 89 89 W 5 7 30.09 1019 10 16.0934 0 0
9:55 pm 21:55 Cloudy 39 3.9 36 2.1 88 88 W 3 6 30.09 1019 10 16.0934 0 0
10:15 pm 22:15 Cloudy 39 3.7 36 2.3 91 91 W 3 6 30.09 1019 10 16.0934 0 0
10:35 pm 22:35 Cloudy 39 3.8 36 2.3 90 90 W 3 6 30.09 1019 10 16.0934 0 0
10:55 pm 22:55 Cloudy 39 3.7 36 2.3 91 91 Calm 30.09 1019 10 16.0934 0 0
11:15 pm 23:15 Cloudy 39 3.8 36 2.2 89 89 W 5 7 30.09 1019 10 16.0934 0 0
11:35 pm 23:35 Cloudy 39 3.7 35 1.9 88 88 W 3 6 30.09 1019 10 16.0934 0 0
11:55 pm 23:55 Cloudy 39 3.7 35 1.7 87 87 W 5 7 30.09 1019 10 16.0934 0 0

Powered by AerisWeather